DW1183 Weather Reports


Display with metric or nautical units.
time (UTC)temp
F
wind
direction
speed
MPH
gust
MPH
rain 1hr
in
rain 24hr
in
rain mn
in
humidity
%
barometer
mb
20260506061536 76 140 4.0 8.0 0.00 0.00 0.00 90 1010.3
20260506044536 77 163 3.0 12.0 0.00 0.00 0.00 89 1010.4
20260506043026 77 127 3.0 10.0 0.00 0.00 0.00 89 1010.3
20260506041526 77 126 5.0 11.0 0.00 0.00 0.00 89 1010.4
20260506040025 77 185 5.0 8.0 0.00 0.00 0.00 89 1010.3
20260506034525 77 151 4.0 10.0 0.00 0.00 0.00 89 1010.3
20260506033024 77 150 3.0 11.0 0.00 0.00 0.00 89 1010.3
20260506031525 77 162 3.0 8.0 0.00 0.00 0.00 89 1010.2
20260506030025 77 171 4.0 10.0 0.00 0.00 0.00 90 1010.2
20260506024531 77 163 3.0 8.0 0.00 0.00 0.00 90 1009.9
20260506023022 77 142 3.0 6.0 0.00 0.00 0.00 90 1009.8
20260506021521 77 171 3.0 9.0 0.00 0.00 0.00 90 1009.6
20260506020021 77 166 3.0 7.0 0.00 0.00 0.00 89 1009.4
20260506014520 77 153 4.0 10.0 0.00 0.00 0.00 89 1009.2
20260506013023 77 132 4.0 9.0 0.00 0.00 0.00 88 1009.1
20260506011520 78 163 4.0 9.0 0.00 0.00 0.00 88 1008.9
20260506010018 78 183 6.0 11.0 0.00 0.00 0.00 88 1008.6
20260506004517 78 178 4.0 15.0 0.00 0.00 0.00 88 1008.5
20260506003017 78 121 7.0 14.0 0.00 0.00 0.00 88 1008.5
20260506001516 78 180 7.0 14.0 0.00 0.00 0.00 88 1008.4
20260506000015 78 163 5.0 10.0 0.00 0.00 0.00 88 1008.6
20260505234532 78 167 6.0 11.0 0.00 0.00 0.00 88 1008.4
20260505233017 79 153 7.0 13.0 0.00 0.00 0.00 87 1008.5
20260505231515 79 161 6.0 10.0 0.00 0.00 0.00 86 1008.5
20260505230015 79 178 7.0 12.0 0.00 0.00 0.00 86 1008.6
20260505224518 80 151 6.0 11.0 0.00 0.00 0.00 86 1008.5
20260505223012 79 178 6.0 13.0 0.00 0.00 0.00 86 1008.7
20260505221509 79 178 6.0 12.0 0.00 0.00 0.00 87 1008.7
20260505220010 79 206 7.0 16.0 0.00 0.00 0.00 86 1008.9
20260505214508 79 175 7.0 15.0 0.00 0.00 0.00 86 1009.0
20260505213007 80 179 7.0 15.0 0.00 0.00 0.00 86 1009.0
20260505211504 80 180 7.0 17.0 0.00 0.00 0.00 86 1009.1
20260505210004 80 155 9.0 20.0 0.00 0.00 0.00 86 1009.2
20260505204502 80 233 8.0 15.0 0.00 0.00 0.00 85 1009.4
20260505203105 80 178 8.0 14.0 0.00 0.00 0.00 86 1009.6
20260505201608 80 190 7.0 14.0 0.00 0.00 0.00 86 1009.9
20260505200105 80 169 5.0 12.0 0.00 0.00 0.00 86 1009.9
20260505194606 80 194 6.0 13.0 0.00 0.00 0.00 85 1010.1
20260505193057 80 194 8.0 16.0 0.00 0.00 0.00 85 1010.1
20260505191556 80 191 6.0 13.0 0.00 0.00 0.00 85 1010.2
20260505190059 79 186 7.0 15.0 0.00 0.00 0.00 86 1010.2
20260505184551 79 185 5.0 10.0 0.00 0.00 0.00 87 1010.4
20260505183051 78 180 4.0 14.0 0.00 0.00 0.00 87 1010.5
20260505181548 78 208 7.0 14.0 0.00 0.00 0.00 87 1010.6
20260505180048 78 161 5.0 10.0 0.00 0.00 0.00 87 1010.6
20260505174548 78 214 5.0 10.0 0.00 0.00 0.00 87 1010.6
20260505173049 78 187 5.0 12.0 0.00 0.00 0.00 87 1010.8
20260505171544 77 191 5.0 10.0 0.00 0.00 0.00 88 1010.9
20260505170045 78 148 5.0 11.0 0.00 0.00 0.00 87 1011.0
20260505164543 78 174 5.0 10.0 0.00 0.00 0.00 87 1010.8
20260505163043 78 184 6.0 15.0 0.00 0.00 0.00 87 1010.7
20260505161543 78 138 6.0 15.0 0.00 0.00 0.00 87 1010.7
20260505153045 78 186 5.0 15.0 0.00 0.00 0.00 86 1010.6
20260505151541 77 203 4.0 9.0 0.00 0.00 0.00 87 1010.4
20260505124510 74 163 4.0 8.0 0.00 0.00 0.00 88 1010.1
20260505123007 74 188 3.0 8.0 0.00 0.00 0.00 88 1009.9
20260505121505 74 155 2.0 5.0 0.00 0.00 0.00 89 1009.9
20260505120004 74 169 2.0 8.0 0.00 0.00 0.00 89 1010.1
20260505114557 74 156 2.0 7.0 0.00 0.00 0.00 89 1009.9
20260505113056 74 171 4.0 10.0 0.00 0.00 0.00 88 1009.8
20260505111549 74 163 2.0 5.0 0.00 0.00 0.00 88 1010.0
20260505101538 73 151 2.0 7.0 0.00 0.00 0.00 88 1009.8
20260505100026 73 167 2.0 6.0 0.00 0.00 0.00 88 1009.7
20260505094528 73 135 1.0 7.0 0.00 0.00 0.00 88 1009.9
20260505093019 73 169 1.0 6.0 0.00 0.00 0.00 88 1010.2
20260505091518 73 209 3.0 7.0 0.00 0.00 0.00 88 1010.1
20260505090014 73 157 1.0 7.0 0.00 0.00 0.00 88 1010.2
20260505084512 73 173 1.0 6.0 0.00 0.00 0.00 88 1010.2
20260505083005 73 156 2.0 7.0 0.00 0.00 0.00 87 1010.1
20260505081601 73 181 2.0 9.0 0.00 0.00 0.00 87 1010.3
20260505080105 73 179 2.0 8.0 0.00 0.00 0.00 87 1010.6
20260505074556 73 189 1.0 6.0 0.00 0.00 0.00 87 1010.7
20260505073058 73 207 3.0 9.0 0.00 0.00 0.00 87 1010.6
20260505071550 73 167 3.0 9.0 0.00 0.00 0.00 87 1010.6
20260505070052 73 160 2.0 6.0 0.00 0.00 0.00 87 1011.0
20260505064542 72 167 3.0 6.0 0.00 0.00 0.00 87 1011.4